Time,TemperatureF,DewpointF,PressureIn,WindDirection,WindDirectionDegrees,WindSpeedMPH,WindSpeedGustMPH,Humidity,HourlyPrecipIn,Conditions,Clouds,dailyrainin,SoftwareType,DateUTC
2013-03-16 00:02:00,3.0,2.0,-100.00,NNW,340,12.0,17.0,94,-99.99,,,-99.99,,2013-03-16 05:02:00,
2013-03-16 00:12:00,3.0,2.0,-100.00,NNW,340,12.0,17.0,94,-99.99,,,-99.99,,2013-03-16 05:12:00,
2013-03-16 00:22:00,3.0,2.0,-100.00,NNW,340,12.0,17.0,94,-99.99,,,-99.99,,2013-03-16 05:22:00,
2013-03-16 00:32:00,2.0,0.0,-100.00,NNW,340,11.0,16.0,94,-99.99,,,-99.99,,2013-03-16 05:32:00,
2013-03-16 00:42:00,2.0,0.0,-100.00,NNW,340,11.0,16.0,94,-99.99,,,-99.99,,2013-03-16 05:42:00,
2013-03-16 00:53:00,2.0,0.0,-100.00,NNW,340,11.0,16.0,94,-99.99,,,-99.99,,2013-03-16 05:53:00,
2013-03-16 01:02:00,2.0,0.0,-100.00,NNW,340,11.0,16.0,94,-99.99,,,-99.99,,2013-03-16 06:02:00,
2013-03-16 01:40:00,-1.0,-3.0,-100.00,NNW,340,11.0,14.0,94,-99.99,,,-99.99,,2013-03-16 06:40:00,
2013-03-16 02:02:00,-1.0,-3.0,-100.00,NNW,340,11.0,14.0,94,-99.99,,,-99.99,,2013-03-16 07:02:00,
2013-03-16 02:12:00,-1.0,-3.0,-100.00,NNW,340,11.0,14.0,94,-99.99,,,-99.99,,2013-03-16 07:12:00,
2013-03-16 02:22:00,-1.0,-3.0,-100.00,NNW,340,11.0,14.0,94,-99.99,,,-99.99,,2013-03-16 07:22:00,
2013-03-16 02:32:00,-1.0,-3.0,-100.00,NNW,340,11.0,14.0,94,-99.99,,,-99.99,,2013-03-16 07:32:00,
2013-03-16 03:02:00,-1.0,-2.0,-100.00,NNW,340,12.0,16.0,94,-99.99,,,-99.99,,2013-03-16 08:02:00,
2013-03-16 03:12:00,-1.0,-2.0,-100.00,NNW,340,12.0,16.0,94,-99.99,,,-99.99,,2013-03-16 08:12:00,
2013-03-16 03:23:00,-1.0,-2.0,-100.00,NNW,340,12.0,16.0,94,-99.99,,,-99.99,,2013-03-16 08:23:00,
2013-03-16 03:32:00,-1.0,-3.0,-100.00,NNW,340,12.0,17.0,94,-99.99,,,-99.99,,2013-03-16 08:32:00,
2013-03-16 03:42:00,-1.0,-3.0,-100.00,NNW,340,12.0,17.0,94,-99.99,,,-99.99,,2013-03-16 08:42:00,
2013-03-16 03:52:00,-1.0,-3.0,-100.00,NNW,340,12.0,17.0,94,-99.99,,,-99.99,,2013-03-16 08:52:00,
2013-03-16 04:01:00,-1.0,-3.0,-100.00,NNW,340,12.0,16.0,94,-99.99,,,-99.99,,2013-03-16 09:01:00,
2013-03-16 04:12:00,-1.0,-3.0,-100.00,NNW,340,12.0,16.0,94,-99.99,,,-99.99,,2013-03-16 09:12:00,
2013-03-16 04:22:00,-1.0,-3.0,-100.00,NNW,340,12.0,16.0,94,-99.99,,,-99.99,,2013-03-16 09:22:00,
2013-03-16 04:33:00,-1.0,-3.0,-100.00,NNW,340,12.0,16.0,94,-99.99,,,-99.99,,2013-03-16 09:33:00,
2013-03-16 05:03:00,-1.0,-3.0,-100.00,NNW,335,9.0,14.0,94,-99.99,,,-99.99,,2013-03-16 10:03:00,
2013-03-16 05:12:00,-1.0,-3.0,-100.00,NNW,335,9.0,14.0,94,-99.99,,,-99.99,,2013-03-16 10:12:00,
2013-03-16 05:23:00,-1.0,-3.0,-100.00,NNW,335,9.0,14.0,94,-99.99,,,-99.99,,2013-03-16 10:23:00,
2013-03-16 05:32:00,-4.0,-5.0,-100.00,NW,320,7.0,9.0,94,-99.99,,,-99.99,,2013-03-16 10:32:00,
2013-03-16 05:42:00,-4.0,-5.0,-100.00,NW,320,7.0,9.0,94,-99.99,,,-99.99,,2013-03-16 10:42:00,
2013-03-16 05:53:00,-4.0,-5.0,-100.00,NW,320,7.0,9.0,94,-99.99,,,-99.99,,2013-03-16 10:53:00,
2013-03-16 06:03:00,-8.0,-9.0,-100.00,WNW,300,6.0,7.0,93,-99.99,,,-99.99,,2013-03-16 11:03:00,
2013-03-16 06:12:00,-8.0,-9.0,-100.00,WNW,300,6.0,7.0,93,-99.99,,,-99.99,,2013-03-16 11:12:00,
2013-03-16 06:22:00,-8.0,-9.0,-100.00,WNW,300,6.0,7.0,93,-99.99,,,-99.99,,2013-03-16 11:22:00,
2013-03-16 06:32:00,-8.0,-9.0,-100.00,WNW,300,6.0,7.0,93,-99.99,,,-99.99,,2013-03-16 11:32:00,
2013-03-16 07:02:00,-9.0,-10.0,-100.00,WNW,295,7.0,7.0,92,-99.99,,,-99.99,,2013-03-16 12:02:00,
2013-03-16 07:12:00,-9.0,-10.0,-100.00,WNW,295,7.0,7.0,92,-99.99,,,-99.99,,2013-03-16 12:12:00,
2013-03-16 07:22:00,-9.0,-10.0,-100.00,WNW,295,7.0,7.0,92,-99.99,,,-99.99,,2013-03-16 12:22:00,
2013-03-16 07:32:00,-10.0,-12.0,-100.00,West,275,6.0,7.0,92,-99.99,,,-99.99,,2013-03-16 12:32:00,
2013-03-16 07:42:00,-10.0,-12.0,-100.00,West,275,6.0,7.0,92,-99.99,,,-99.99,,2013-03-16 12:42:00,
2013-03-16 07:53:00,-10.0,-12.0,-100.00,West,275,6.0,7.0,92,-99.99,,,-99.99,,2013-03-16 12:53:00,
2013-03-16 08:02:00,-12.0,-14.0,-100.00,WNW,285,6.0,7.0,92,-99.99,,,-99.99,,2013-03-16 13:02:00,
2013-03-16 08:12:00,-12.0,-14.0,-100.00,WNW,285,6.0,7.0,92,-99.99,,,-99.99,,2013-03-16 13:12:00,
2013-03-16 08:22:00,-12.0,-14.0,-100.00,WNW,285,6.0,7.0,92,-99.99,,,-99.99,,2013-03-16 13:22:00,
2013-03-16 08:32:00,-12.0,-14.0,-100.00,West,280,7.0,9.0,91,-99.99,,,-99.99,,2013-03-16 13:32:00,
2013-03-16 08:42:00,-12.0,-14.0,-100.00,West,280,7.0,9.0,91,-99.99,,,-99.99,,2013-03-16 13:42:00,
2013-03-16 08:53:00,-12.0,-14.0,-100.00,West,280,7.0,9.0,91,-99.99,,,-99.99,,2013-03-16 13:53:00,
2013-03-16 09:02:00,-14.0,-16.0,-100.00,West,275,6.0,10.0,91,-99.99,,,-99.99,,2013-03-16 14:02:00,
2013-03-16 09:12:00,-14.0,-16.0,-100.00,West,275,6.0,10.0,91,-99.99,,,-99.99,,2013-03-16 14:12:00,
2013-03-16 09:22:00,-14.0,-16.0,-100.00,West,275,6.0,10.0,91,-99.99,,,-99.99,,2013-03-16 14:22:00,
2013-03-16 09:32:00,-11.0,-13.0,-100.00,West,275,6.0,8.0,91,-99.99,,,-99.99,,2013-03-16 14:32:00,
2013-03-16 09:42:00,-11.0,-13.0,-100.00,West,275,6.0,8.0,91,-99.99,,,-99.99,,2013-03-16 14:42:00,
2013-03-16 09:52:00,-11.0,-13.0,-100.00,West,275,6.0,8.0,91,-99.99,,,-99.99,,2013-03-16 14:52:00,
2013-03-16 10:02:00,-8.0,-10.0,-100.00,West,280,3.0,6.0,91,-99.99,,,-99.99,,2013-03-16 15:02:00,
2013-03-16 10:12:00,-8.0,-10.0,-100.00,West,280,3.0,6.0,91,-99.99,,,-99.99,,2013-03-16 15:12:00,
2013-03-16 10:22:00,-8.0,-10.0,-100.00,West,280,3.0,6.0,91,-99.99,,,-99.99,,2013-03-16 15:22:00,
2013-03-16 10:33:00,-5.0,-7.0,-100.00,WNW,295,6.0,7.0,92,-99.99,,,-99.99,,2013-03-16 15:33:00,
2013-03-16 10:44:00,-5.0,-7.0,-100.00,WNW,295,6.0,7.0,92,-99.99,,,-99.99,,2013-03-16 15:44:00,
2013-03-16 10:53:00,-5.0,-7.0,-100.00,WNW,295,6.0,7.0,92,-99.99,,,-99.99,,2013-03-16 15:53:00,
2013-03-16 11:03:00,-3.0,-5.0,-100.00,WNW,285,4.0,7.0,92,-99.99,,,-99.99,,2013-03-16 16:03:00,
2013-03-16 11:12:00,-3.0,-5.0,-100.00,WNW,285,4.0,7.0,92,-99.99,,,-99.99,,2013-03-16 16:12:00,
2013-03-16 11:22:00,-3.0,-5.0,-100.00,WNW,285,4.0,7.0,92,-99.99,,,-99.99,,2013-03-16 16:22:00,
2013-03-16 11:33:00,-1.0,-3.0,-100.00,WNW,285,9.0,12.0,90,-99.99,,,-99.99,,2013-03-16 16:33:00,
2013-03-16 11:43:00,-1.0,-3.0,-100.00,WNW,285,9.0,12.0,90,-99.99,,,-99.99,,2013-03-16 16:43:00,
2013-03-16 11:53:00,-1.0,-3.0,-100.00,WNW,285,9.0,12.0,90,-99.99,,,-99.99,,2013-03-16 16:53:00,
2013-03-16 12:03:00,-1.0,-3.0,-100.00,WNW,285,9.0,12.0,90,-99.99,,,-99.99,,2013-03-16 17:03:00,
2013-03-16 13:02:00,6.0,1.0,-100.00,WNW,285,11.0,15.0,83,-99.99,,,-99.99,,2013-03-16 18:02:00,
2013-03-16 13:13:00,6.0,1.0,-100.00,WNW,285,11.0,15.0,83,-99.99,,,-99.99,,2013-03-16 18:13:00,
2013-03-16 13:23:00,6.0,1.0,-100.00,WNW,285,11.0,15.0,83,-99.99,,,-99.99,,2013-03-16 18:23:00,
2013-03-16 13:33:00,8.0,3.0,-100.00,WNW,290,12.0,14.0,81,-99.99,,,-99.99,,2013-03-16 18:33:00,
2013-03-16 13:43:00,8.0,3.0,-100.00,WNW,290,12.0,14.0,81,-99.99,,,-99.99,,2013-03-16 18:43:00,
2013-03-16 13:53:00,8.0,3.0,-100.00,WNW,290,12.0,14.0,81,-99.99,,,-99.99,,2013-03-16 18:53:00,
2013-03-16 14:02:00,8.0,3.0,-100.00,WNW,290,12.0,14.0,81,-99.99,,,-99.99,,2013-03-16 19:02:00,
2013-03-16 15:02:00,9.0,3.0,-100.00,NW,315,14.0,18.0,77,-99.99,,,-99.99,,2013-03-16 20:02:00,
2013-03-16 15:12:00,9.0,3.0,-100.00,NW,315,14.0,18.0,77,-99.99,,,-99.99,,2013-03-16 20:12:00,
2013-03-16 15:22:00,9.0,3.0,-100.00,NW,315,14.0,18.0,77,-99.99,,,-99.99,,2013-03-16 20:22:00,
2013-03-16 15:32:00,9.0,3.0,-100.00,NW,315,14.0,17.0,76,-99.99,,,-99.99,,2013-03-16 20:32:00,
2013-03-16 15:42:00,9.0,3.0,-100.00,NW,315,14.0,17.0,76,-99.99,,,-99.99,,2013-03-16 20:42:00,
2013-03-16 15:52:00,9.0,3.0,-100.00,NW,315,14.0,17.0,76,-99.99,,,-99.99,,2013-03-16 20:52:00,
2013-03-16 16:02:00,10.0,4.0,-100.00,NW,320,12.0,17.0,76,-99.99,,,-99.99,,2013-03-16 21:02:00,
2013-03-16 16:12:00,10.0,4.0,-100.00,NW,320,12.0,17.0,76,-99.99,,,-99.99,,2013-03-16 21:12:00,
2013-03-16 16:22:00,10.0,4.0,-100.00,NW,320,12.0,17.0,76,-99.99,,,-99.99,,2013-03-16 21:22:00,
2013-03-16 16:33:00,10.0,3.0,-100.00,North,350,12.0,16.0,74,-99.99,,,-99.99,,2013-03-16 21:33:00,
2013-03-16 16:43:00,10.0,3.0,-100.00,North,350,12.0,16.0,74,-99.99,,,-99.99,,2013-03-16 21:43:00,
2013-03-16 16:53:00,10.0,3.0,-100.00,North,350,12.0,16.0,74,-99.99,,,-99.99,,2013-03-16 21:53:00,
2013-03-16 17:03:00,10.0,3.0,-100.00,NNW,340,11.0,17.0,73,-99.99,,,-99.99,,2013-03-16 22:03:00,
2013-03-16 17:12:00,10.0,3.0,-100.00,NNW,340,11.0,17.0,73,-99.99,,,-99.99,,2013-03-16 22:12:00,
2013-03-16 17:22:00,10.0,3.0,-100.00,NNW,340,11.0,17.0,73,-99.99,,,-99.99,,2013-03-16 22:22:00,
2013-03-16 17:33:00,10.0,3.0,-100.00,NNW,340,11.0,17.0,73,-99.99,,,-99.99,,2013-03-16 22:33:00,
2013-03-16 19:02:00,7.0,1.0,-100.00,NNE,15,12.0,19.0,76,-99.99,,,-99.99,,2013-03-17 00:02:00,
2013-03-16 19:12:00,7.0,1.0,-100.00,NNE,15,12.0,19.0,76,-99.99,,,-99.99,,2013-03-17 00:12:00,
2013-03-16 19:22:00,7.0,1.0,-100.00,NNE,15,12.0,19.0,76,-99.99,,,-99.99,,2013-03-17 00:22:00,
2013-03-16 19:32:00,4.0,-2.0,-100.00,NNW,340,11.0,16.0,77,-99.99,,,-99.99,,2013-03-17 00:32:00,
2013-03-16 19:43:00,4.0,-2.0,-100.00,NNW,340,11.0,16.0,77,-99.99,,,-99.99,,2013-03-17 00:43:00,
2013-03-16 19:52:00,4.0,-2.0,-100.00,NNW,340,11.0,16.0,77,-99.99,,,-99.99,,2013-03-17 00:52:00,
2013-03-16 20:02:00,2.0,-5.0,-100.00,North,350,7.0,11.0,71,-99.99,,,-99.99,,2013-03-17 01:02:00,
2013-03-16 20:12:00,2.0,-5.0,-100.00,North,350,7.0,11.0,71,-99.99,,,-99.99,,2013-03-17 01:12:00,
2013-03-16 20:22:00,2.0,-5.0,-100.00,North,350,7.0,11.0,71,-99.99,,,-99.99,,2013-03-17 01:22:00,
2013-03-16 20:32:00,0.0,-6.0,-100.00,North,355,4.0,6.0,73,-99.99,,,-99.99,,2013-03-17 01:32:00,
2013-03-16 20:43:00,0.0,-6.0,-100.00,North,355,4.0,6.0,73,-99.99,,,-99.99,,2013-03-17 01:43:00,
2013-03-16 20:53:00,0.0,-6.0,-100.00,North,355,4.0,6.0,73,-99.99,,,-99.99,,2013-03-17 01:53:00,
2013-03-16 21:02:00,-2.0,-8.0,-100.00,NW,320,4.0,6.0,75,-99.99,,,-99.99,,2013-03-17 02:02:00,
2013-03-16 21:13:00,-2.0,-8.0,-100.00,NW,320,4.0,6.0,75,-99.99,,,-99.99,,2013-03-17 02:13:00,
2013-03-16 21:22:00,-2.0,-8.0,-100.00,NW,320,4.0,6.0,75,-99.99,,,-99.99,,2013-03-17 02:22:00,
2013-03-16 21:33:00,-4.0,-9.0,-100.00,NW,325,6.0,7.0,77,-99.99,,,-99.99,,2013-03-17 02:33:00,
2013-03-16 21:43:00,-4.0,-9.0,-100.00,NW,325,6.0,7.0,77,-99.99,,,-99.99,,2013-03-17 02:43:00,
2013-03-16 21:53:00,-4.0,-9.0,-100.00,NW,325,6.0,7.0,77,-99.99,,,-99.99,,2013-03-17 02:53:00,
2013-03-16 22:02:00,-4.0,-9.0,-100.00,NW,325,6.0,7.0,77,-99.99,,,-99.99,,2013-03-17 03:02:00,
2013-03-16 23:03:00,-7.0,-11.0,-100.00,NNW,330,2.0,6.0,83,-99.99,,,-99.99,,2013-03-17 04:03:00,
2013-03-16 23:13:00,-7.0,-11.0,-100.00,NNW,330,2.0,6.0,83,-99.99,,,-99.99,,2013-03-17 04:13:00,
2013-03-16 23:23:00,-7.0,-11.0,-100.00,NNW,330,2.0,6.0,83,-99.99,,,-99.99,,2013-03-17 04:23:00,
2013-03-16 23:32:00,-7.0,-11.0,-100.00,NNW,330,2.0,6.0,83,-99.99,,,-99.99,,2013-03-17 04:32:00,